N2WH Weather Reports


time (UTC)temp
F
wind
direction
speed
knots
gust
knots
rain 1hr
in
rain 24hr
in
rain mn
in
humidity
%
barometer
mb
20260505224318 78 191 0.9 0.9 0.00 0.00 0.00 35 1009.1
20260505223814 78 130 1.7 2.6 0.00 0.00 0.00 35 1009.1
20260505223312 78 209 0.9 1.7 0.00 0.00 0.00 36 1009.2
20260505222807 78 114 1.7 1.7 0.00 0.00 0.00 36 1008.9
20260505222305 78 208 0.9 1.7 0.00 0.00 0.00 35 1009.1
20260505221801 79 223 1.7 1.7 0.00 0.00 0.00 34 1009.2
20260505221257 79 132 0.9 0.9 0.00 0.00 0.00 34 1009.0
20260505220754 79 188 1.7 1.7 0.00 0.00 0.00 35 1009.1
20260505220251 78 234 1.7 2.6 0.00 0.00 0.00 34 1009.3
20260505215750 78 195 1.7 1.7 0.00 0.00 0.00 34 1008.9
20260505215247 78 145 0.0 0.0 0.00 0.00 0.00 35 1008.9
20260505214745 79 141 0.9 0.9 0.00 0.00 0.00 34 1008.7
20260505214242 79 186 1.7 1.7 0.00 0.00 0.00 34 1008.7
20260505213739 79 117 0.9 0.9 0.00 0.00 0.00 34 1008.9
20260505213236 79 165 1.7 1.7 0.00 0.00 0.00 32 1008.9
20260505212732 79 244 1.7 1.7 0.00 0.00 0.00 33 1008.7
20260505212230 79 225 2.6 5.2 0.00 0.00 0.00 33 1008.6
20260505211726 79 181 0.9 1.7 0.00 0.00 0.00 32 1008.5
20260505211224 80 339 3.5 5.2 0.00 0.00 0.00 31 1008.4
20260505210720 79 174 0.9 1.7 0.00 0.00 0.00 34 1008.4
20260505210217 80 156 1.7 1.7 0.00 0.00 0.00 34 1008.4
20260505205714 80 284 4.3 6.1 0.00 0.00 0.00 33 1008.2
20260505205213 80 158 2.6 4.3 0.00 0.00 0.00 34 1008.5
20260505204709 81 327 2.6 2.6 0.00 0.00 0.00 34 1008.2
20260505204207 81 253 5.2 6.1 0.00 0.00 0.00 32 1008.5
20260505203704 81 270 2.6 2.6 0.00 0.00 0.00 34 1008.7
20260505203201 82 198 2.6 4.3 0.00 0.00 0.00 34 1008.6
20260505202656 82 175 3.5 4.3 0.00 0.00 0.00 33 1008.7
20260505202153 82 221 2.6 2.6 0.00 0.00 0.00 35 1008.9
20260505201649 82 235 2.6 2.6 0.00 0.00 0.00 35 1008.6
20260505201147 82 205 0.9 1.7 0.00 0.00 0.00 35 1008.6
20260505200645 82 241 3.5 5.2 0.00 0.00 0.00 33 1008.7
20260505200141 82 213 2.6 2.6 0.00 0.00 0.00 33 1008.6
20260505195637 83 191 1.7 1.7 0.00 0.00 0.00 35 1008.7
20260505195135 82 248 3.5 4.3 0.00 0.00 0.00 34 1008.6
20260505194632 82 249 4.3 9.6 0.00 0.00 0.00 33 1008.7
20260505194128 82 223 0.9 1.7 0.00 0.00 0.00 34 1009.0
20260505193625 82 250 2.6 4.3 0.00 0.00 0.00 35 1009.0
20260505193122 82 222 4.3 7.8 0.00 0.00 0.00 34 1009.0
20260505192621 82 282 3.5 5.2 0.00 0.00 0.00 34 1009.1
20260505192117 82 154 1.7 2.6 0.00 0.00 0.00 33 1009.0
20260505191616 83 266 2.6 4.3 0.00 0.00 0.00 33 1009.0
20260505191113 83 157 2.6 2.6 0.00 0.00 0.00 34 1009.0
20260505190609 83 246 1.7 1.7 0.00 0.00 0.00 35 1009.2
20260505190104 83 102 2.6 4.3 0.00 0.00 0.00 35 1009.4
20260505185601 83 231 0.9 1.7 0.00 0.00 0.00 36 1009.4
20260505185057 84 165 2.6 4.3 0.00 0.00 0.00 35 1009.1
20260505184554 83 223 0.9 1.7 0.00 0.00 0.00 37 1009.5
20260505184051 83 232 1.7 2.6 0.00 0.00 0.00 37 1009.7
20260505183547 83 186 1.7 1.7 0.00 0.00 0.00 37 1009.7
20260505183045 84 222 1.7 1.7 0.00 0.00 0.00 35 1009.8
20260505182541 85 273 1.7 2.6 0.00 0.00 0.00 34 1009.7
20260505182038 83 290 0.9 0.9 0.00 0.00 0.00 36 1009.7
20260505181535 82 136 0.0 0.9 0.00 0.00 0.00 38 1009.6
20260505181032 81 180 0.9 0.9 0.00 0.00 0.00 39 1010.0
20260505180528 82 246 1.7 1.7 0.00 0.00 0.00 38 1010.2
20260505180026 81 148 0.9 0.9 0.00 0.00 0.00 39 1010.2
20260505175520 83 74 1.7 1.7 0.00 0.00 0.00 37 1009.8
20260505175018 83 264 2.6 2.6 0.00 0.00 0.00 38 1010.2
20260505174515 82 164 0.0 0.9 0.00 0.00 0.00 43 1010.3
20260505174011 82 199 0.9 0.9 0.00 0.00 0.00 42 1010.3
20260505173508 81 286 2.6 6.1 0.00 0.00 0.00 41 1010.3
20260505173004 82 181 1.7 1.7 0.00 0.00 0.00 39 1010.4
20260505172502 83 170 0.9 0.9 0.00 0.00 0.00 41 1010.4
20260505171957 81 127 0.0 0.9 0.00 0.00 0.00 42 1010.5
20260505171453 82 197 0.9 0.9 0.00 0.00 0.00 43 1010.6
20260505170950 81 224 1.7 2.6 0.00 0.00 0.00 42 1010.5
20260505170447 81 199 2.6 2.6 0.00 0.00 0.00 41 1010.7
20260505165942 80 15 1.7 2.6 0.00 0.00 0.00 45 1010.5
20260505165438 80 205 4.3 5.2 0.00 0.00 0.00 43 1010.6
20260505164934 79 259 2.6 4.3 0.00 0.00 0.00 44 1010.8
20260505164431 79 313 2.6 4.3 0.00 0.00 0.00 45 1010.8
20260505163929 79 102 1.7 1.7 0.00 0.00 0.00 46 1010.8
20260505163427 80 157 0.9 1.7 0.00 0.00 0.00 44 1010.9
20260505162926 80 242 3.5 4.3 0.00 0.00 0.00 45 1010.9
20260505162421 80 155 0.9 0.9 0.00 0.00 0.00 45 1011.0
20260505161919 80 153 0.9 1.7 0.00 0.00 0.00 45 1011.0
20260505161415 80 158 0.0 0.9 0.00 0.00 0.00 46 1011.2
20260505160913 80 163 0.9 0.9 0.00 0.00 0.00 45 1011.1
20260505160411 80 170 0.9 1.7 0.00 0.00 0.00 47 1011.3
20260505153349 77 257 1.7 1.7 0.00 0.00 0.00 48 1011.6
20260505152846 77 171 0.9 0.9 0.00 0.00 0.00 48 1011.5
20260505152343 77 178 1.7 1.7 0.00 0.00 0.00 48 1011.8
20260505151837 77 129 0.0 0.0 0.00 0.00 0.00 50 1011.9
20260505151335 77 153 0.9 1.7 0.00 0.00 0.00 49 1011.8
20260505150831 77 127 0.0 0.0 0.00 0.00 0.00 50 1011.8
20260505150329 75 124 0.9 0.9 0.00 0.00 0.00 51 1011.7
20260505140253 73 179 0.9 0.9 0.00 0.00 0.00 54 1012.0
20260505130217 66 149 0.0 0.0 0.00 0.00 0.00 65 1012.0
20260505124707 65 138 0.0 0.9 0.00 0.00 0.00 66 1011.7
20260505124204 64 138 0.0 0.0 0.00 0.00 0.00 67 1011.5
20260505123659 64 149 0.9 1.7 0.00 0.00 0.00 67 1011.6
20260505123156 63 130 0.0 0.0 0.00 0.00 0.00 68 1011.5
20260505122653 63 148 0.9 0.9 0.00 0.00 0.00 70 1011.8
20260505122150 62 146 0.0 0.0 0.00 0.00 0.00 71 1011.8
20260505121647 62 144 0.9 0.9 0.00 0.00 0.00 72 1011.8
20260505121143 61 135 0.0 0.0 0.00 0.00 0.00 75 1011.9
20260505120639 60 139 0.0 0.0 0.00 0.00 0.00 76 1012.0
20260505120136 60 139 0.0 0.0 0.00 0.00 0.00 77 1011.9
20260505115630 59 136 0.0 0.0 0.00 0.00 0.00 79 1012.2
20260505115128 59 139 0.0 0.0 0.00 0.00 0.00 80 1012.1
20260505114624 58 138 0.0 0.0 0.00 0.00 0.00 81 1011.8
20260505114121 57 116 0.0 0.0 0.00 0.00 0.00 82 1011.9
20260505113617 57 114 0.0 0.0 0.00 0.00 0.00 82 1011.7
20260505113114 57 114 0.0 0.0 0.00 0.00 0.00 82 1011.9
20260505112610 57 135 0.0 0.9 0.00 0.00 0.00 81 1012.0
20260505112108 57 127 0.0 0.0 0.00 0.00 0.00 80 1011.8
20260505111602 58 149 0.0 0.0 0.00 0.00 0.00 80 1011.5
20260505111058 58 132 0.0 0.0 0.00 0.00 0.00 81 1011.6
20260505110555 57 122 0.0 0.0 0.00 0.00 0.00 81 1011.3
20260505102028 57 144 0.0 0.0 0.00 0.00 0.00 74 1011.7
20260505101526 57 136 0.0 0.0 0.00 0.00 0.00 74 1011.7
20260505101022 56 145 0.0 0.9 0.00 0.00 0.00 76 1011.5
20260505100519 55 129 0.0 0.0 0.00 0.00 0.00 77 1011.4
20260505100016 56 129 0.0 0.9 0.00 0.00 0.00 75 1011.4
20260505095512 56 130 0.0 0.9 0.00 0.00 0.00 76 1011.4
20260505095008 55 129 0.0 0.9 0.00 0.00 0.00 77 1011.2
20260505094505 54 139 0.0 0.0 0.00 0.00 0.00 79 1011.4
20260505094001 54 121 0.0 0.0 0.00 0.00 0.00 80 1011.4
20260505093458 54 121 0.0 0.0 0.00 0.00 0.00 79 1011.4
20260505092955 53 121 0.0 0.0 0.00 0.00 0.00 81 1011.3
20260505092452 53 121 0.0 0.0 0.00 0.00 0.00 81 1011.1
20260505091950 53 132 0.0 0.0 0.00 0.00 0.00 81 1010.9
20260505091447 53 132 0.0 0.0 0.00 0.00 0.00 81 1011.1
20260505090945 53 131 0.0 0.0 0.00 0.00 0.00 80 1011.0
20260505090443 53 125 0.0 0.0 0.00 0.00 0.00 81 1011.0
20260505085940 53 125 0.0 0.0 0.00 0.00 0.00 81 1010.9
20260505085438 53 125 0.0 0.0 0.00 0.00 0.00 81 1010.9
20260505084936 53 125 0.0 0.0 0.00 0.00 0.00 80 1010.9
20260505084434 53 125 0.0 0.0 0.00 0.00 0.00 80 1011.0
20260505083932 53 125 0.0 0.0 0.00 0.00 0.00 80 1011.0
20260505083429 53 125 0.0 0.0 0.00 0.00 0.00 80 1011.0
20260505082925 53 121 0.0 0.0 0.00 0.00 0.00 80 1011.0
20260505082421 53 119 0.0 0.0 0.00 0.00 0.00 80 1011.0
20260505081918 53 119 0.0 0.0 0.00 0.00 0.00 79 1011.0
20260505081415 53 119 0.0 0.0 0.00 0.00 0.00 79 1010.7
20260505080911 54 119 0.0 0.0 0.00 0.00 0.00 78 1010.9
20260505080408 54 119 0.0 0.0 0.00 0.00 0.00 78 1010.9
20260505075903 54 124 0.0 0.0 0.00 0.00 0.00 78 1010.9
20260505075400 54 124 0.0 0.0 0.00 0.00 0.00 77 1011.0
20260505074857 54 124 0.0 0.0 0.00 0.00 0.00 77 1011.2
20260505074354 54 124 0.0 0.0 0.00 0.00 0.00 77 1010.9
20260505073852 55 122 0.0 0.0 0.00 0.00 0.00 77 1010.9
20260505073349 55 122 0.0 0.0 0.00 0.00 0.00 77 1011.0
20260505072846 54 124 0.0 0.0 0.00 0.00 0.00 77 1011.0
20260505072342 55 123 0.0 0.0 0.00 0.00 0.00 77 1010.7
20260505071838 54 123 0.0 0.0 0.00 0.00 0.00 77 1010.9
20260505071335 54 127 0.0 0.0 0.00 0.00 0.00 76 1011.0
20260505070834 55 127 0.0 0.0 0.00 0.00 0.00 76 1011.0
20260505070330 55 127 0.0 0.0 0.00 0.00 0.00 75 1010.8
20260505065825 55 129 0.0 0.0 0.00 0.00 0.00 75 1011.0
20260505065322 55 129 0.0 0.0 0.00 0.00 0.00 74 1011.2
20260505064819 56 137 0.0 0.0 0.00 0.00 0.00 73 1011.0
20260505064316 56 124 0.0 0.9 0.00 0.00 0.00 72 1011.0
20260505063814 57 117 0.0 0.0 0.00 0.00 0.00 72 1011.1
20260505063310 57 142 0.9 0.9 0.00 0.00 0.00 71 1011.0
20260505062806 57 140 0.0 0.0 0.00 0.00 0.00 71 1011.0
20260505062304 56 143 0.0 0.0 0.00 0.00 0.00 71 1011.0
20260505061801 56 143 0.0 0.0 0.00 0.00 0.00 71 1011.0
20260505061259 56 177 0.9 0.9 0.00 0.00 0.00 71 1011.2
20260505060756 55 145 0.0 0.0 0.00 0.00 0.00 73 1011.0
20260505060253 54 137 0.0 0.0 0.00 0.00 0.00 74 1011.2
20260505055748 54 133 0.0 0.0 0.00 0.00 0.00 73 1011.4
20260505055245 55 133 0.0 0.0 0.00 0.00 0.00 72 1011.3
20260505054742 55 133 0.0 0.0 0.00 0.00 0.00 72 1011.3
20260505054240 55 137 0.0 0.0 0.00 0.00 0.00 71 1011.0
20260505053738 55 134 0.0 0.0 0.00 0.00 0.00 71 1011.2
20260505053234 55 137 0.0 0.0 0.00 0.00 0.00 70 1011.3
20260505052732 55 131 0.0 0.0 0.00 0.00 0.00 70 1011.3
20260505052228 55 135 0.0 0.0 0.00 0.00 0.00 70 1011.3
20260505051725 55 131 0.0 0.0 0.00 0.00 0.00 69 1011.5
20260505051223 55 126 0.0 0.0 0.00 0.00 0.00 68 1011.5
20260505050721 56 134 0.0 0.0 0.00 0.00 0.00 67 1011.6
20260505050219 56 138 0.0 0.0 0.00 0.00 0.00 66 1011.4
20260505041648 58 139 0.0 0.0 0.00 0.00 0.00 61 1011.5
20260505041146 58 133 0.0 0.0 0.00 0.00 0.00 61 1011.7
20260505040643 58 134 0.0 0.0 0.00 0.00 0.00 61 1011.7
20260505040140 58 134 0.0 0.0 0.00 0.00 0.00 60 1011.6
20260505035636 58 135 0.0 0.0 0.00 0.00 0.00 59 1011.6
20260505035132 59 144 0.0 0.9 0.00 0.00 0.00 58 1011.7
20260505034629 59 132 0.0 0.0 0.00 0.00 0.00 58 1011.5
20260505034126 59 132 0.0 0.0 0.00 0.00 0.00 58 1011.5
20260505033623 59 132 0.0 0.0 0.00 0.00 0.00 57 1011.8
20260505033121 59 131 0.0 0.0 0.00 0.00 0.00 57 1011.7
20260505032619 59 120 0.0 0.0 0.00 0.00 0.00 56 1011.6
20260505032115 59 131 0.0 0.0 0.00 0.00 0.00 56 1011.7
20260505031613 59 142 0.0 0.0 0.00 0.00 0.00 55 1011.7
20260505031109 60 145 0.0 0.0 0.00 0.00 0.00 55 1011.7
20260505030606 60 129 0.0 0.0 0.00 0.00 0.00 54 1011.7
20260505025557 61 133 0.0 0.0 0.00 0.00 0.00 53 1011.7
20260505025057 61 144 1.7 1.7 0.00 0.00 0.00 53 1012.0
20260505024553 61 163 0.9 0.9 0.00 0.00 0.00 52 1011.8
20260505024050 61 191 0.0 0.9 0.00 0.00 0.00 52 1012.1
20260505023548 60 133 0.0 0.9 0.00 0.00 0.00 53 1011.9
20260505023045 60 135 0.0 0.0 0.00 0.00 0.00 54 1011.8
20260505022542 59 134 0.0 0.0 0.00 0.00 0.00 55 1011.8
20260505022040 59 131 0.0 0.0 0.00 0.00 0.00 55 1011.8
20260505021536 59 130 0.0 0.0 0.00 0.00 0.00 55 1011.7
20260505021033 59 137 0.0 0.0 0.00 0.00 0.00 57 1012.0
20260505020532 59 131 0.0 0.0 0.00 0.00 0.00 56 1011.8
20260505020030 60 131 0.0 0.0 0.00 0.00 0.00 56 1011.7
20260505015527 60 131 0.0 0.0 0.00 0.00 0.00 54 1011.8
20260505015024 60 131 0.0 0.0 0.00 0.00 0.00 53 1011.9
20260505014521 61 136 0.0 0.0 0.00 0.00 0.00 53 1011.6
20260505014018 61 131 0.0 0.0 0.00 0.00 0.00 53 1011.7
20260505013515 61 132 0.0 0.0 0.00 0.00 0.00 51 1011.7
20260505013012 61 126 0.0 0.0 0.00 0.00 0.00 50 1011.7
20260505012510 61 132 0.0 0.0 0.00 0.00 0.00 50 1011.6
20260505012007 62 133 0.0 0.0 0.00 0.00 0.00 51 1011.7
20260505011503 62 133 0.0 0.0 0.00 0.00 0.00 50 1011.6
20260505011000 63 165 0.0 0.0 0.00 0.00 0.00 50 1011.4
20260505010455 63 132 0.0 0.0 0.00 0.00 0.00 48 1011.4
20260505005951 63 136 0.0 0.0 0.00 0.00 0.00 49 1011.0
20260505005448 63 133 0.0 0.0 0.00 0.00 0.00 49 1011.0
20260505004946 64 139 0.0 0.0 0.00 0.00 0.00 48 1011.4
20260505004443 64 144 0.9 0.9 0.00 0.00 0.00 47 1011.2
20260505003940 64 141 0.0 0.0 0.00 0.00 0.00 47 1011.1
20260505003437 64 143 0.0 0.0 0.00 0.00 0.00 48 1011.2
20260505002933 64 137 0.0 0.0 0.00 0.00 0.00 47 1011.3
20260505002429 65 141 0.0 0.0 0.00 0.00 0.00 47 1010.9
20260505001928 65 141 0.0 0.9 0.00 0.00 0.00 46 1010.9
20260505001425 65 168 0.9 1.7 0.00 0.00 0.00 45 1010.7
20260505000922 66 132 0.0 0.0 0.00 0.00 0.00 46 1010.6
20260505000420 66 139 0.9 0.9 0.00 0.00 0.00 44 1010.6
20260504235916 66 150 0.9 0.9 0.00 0.00 0.00 43 1010.5
20260504235414 66 126 0.0 0.9 0.00 0.00 0.00 44 1010.6
20260504234910 67 165 0.9 0.9 0.00 0.00 0.00 43 1010.5
20260504234408 67 216 0.9 1.7 0.00 0.00 0.00 43 1010.0
20260504233904 67 166 0.9 0.9 0.00 0.00 0.00 43 1010.1
20260504233359 67 174 0.0 0.9 0.00 0.00 0.00 42 1010.2
20260504232856 68 199 1.7 2.6 0.00 0.00 0.00 41 1010.0
20260504232354 68 184 0.0 0.9 0.00 0.00 0.00 43 1010.1
20260504231850 68 154 0.9 0.9 0.00 0.00 0.00 42 1010.1
20260504231347 68 183 1.7 2.6 0.00 0.00 0.00 41 1009.8
20260504230843 68 225 1.7 1.7 0.00 0.00 0.00 41 1009.7
20260504230341 68 150 0.9 1.7 0.00 0.00 0.00 41 1009.6
20260504225839 68 217 0.9 0.9 0.00 0.00 0.00 41 1009.8
20260504225335 69 155 0.9 0.9 0.00 0.00 0.00 40 1009.6
20260504224833 69 143 0.0 0.0 0.00 0.00 0.00 40 1009.6